CW3816 Weather Reports


time (UTC)temp
F
wind
direction
speed
knots
gust
knots
rain 1hr
in
rain 24hr
in
rain mn
in
humidity
%
barometer
mb
20260507154843 55 227 0.0 0.0 0.00 0.00 0.07 64 1011.4
20260507153346 55 227 0.0 0.0 0.00 0.00 0.07 57 1011.6
20260507151842 55 210 0.0 0.0 0.00 0.00 0.07 60 1011.8
20260507150347 55 102 0.0 0.0 0.00 0.00 0.07 63 1011.6
20260507144841 55 258 0.0 0.0 0.00 0.00 0.07 60 1011.7
20260507143348 55 256 0.0 0.0 0.00 0.00 0.07 63 1012.1
20260507141852 55 157 0.0 0.0 0.00 0.00 0.07 63 1012.4
20260507140351 55 157 0.0 0.0 0.00 0.00 0.07 64 1012.1
20260507134846 55 213 0.0 0.0 0.00 0.00 0.07 66 1012.2
20260507133349 55 347 0.0 0.0 0.00 0.00 0.07 71 1012.0
20260507131907 56 89 0.0 0.0 0.00 0.00 0.07 80 1011.8
20260507130349 56 88 0.0 0.0 0.00 0.00 0.07 81 1011.7
20260507124845 55 104 0.0 0.0 0.00 0.00 0.07 85 1012.0
20260507123349 55 117 0.0 0.0 0.00 0.00 0.07 85 1011.7
20260507121841 55 117 0.0 0.0 0.00 0.00 0.07 87 1011.6
20260507120405 54 119 0.0 0.0 0.00 0.00 0.07 88 1011.1
20260507114844 54 123 0.0 0.0 0.00 0.00 0.07 88 1011.3
20260507113407 53 123 0.0 0.0 0.00 0.00 0.07 89 1011.3
20260507111842 53 123 0.0 0.0 0.00 0.00 0.07 90 1010.7
20260507110405 53 123 0.0 0.0 0.00 0.00 0.07 92 1011.2
20260507104849 53 123 0.0 0.0 0.00 0.00 0.07 92 1011.1
20260507103353 53 123 0.0 0.0 0.00 0.00 0.07 93 1011.0
20260507101847 53 123 0.0 0.0 0.00 0.00 0.07 93 1010.7
20260507100351 53 123 0.0 0.0 0.00 0.00 0.07 92 1010.6
20260507094909 53 123 0.0 0.0 0.00 0.00 0.07 92 1011.0
20260507093348 53 123 0.0 0.0 0.00 0.00 0.07 92 1010.9
20260507091842 53 123 0.0 0.0 0.00 0.00 0.07 91 1010.6
20260507090348 53 123 0.0 0.0 0.00 0.00 0.07 91 1010.5
20260507084845 54 123 0.0 0.0 0.00 0.00 0.07 90 1010.3
20260507083348 54 123 0.0 0.0 0.00 0.00 0.07 91 1010.4
20260507081849 54 123 0.0 0.0 0.00 0.00 0.07 91 1010.6
20260507080353 54 123 0.0 0.0 0.00 0.00 0.07 90 1010.4
20260507074852 55 106 0.0 0.0 0.00 0.00 0.07 92 1010.0
20260507073343 55 110 0.0 0.0 0.00 0.00 0.07 92 1009.7
20260507071845 56 233 0.0 0.0 0.00 0.00 0.06 92 1009.6
20260507070348 56 126 0.0 0.0 0.00 0.00 0.06 93 1009.8
20260507064852 57 124 0.0 0.0 0.00 0.00 0.06 94 1009.9
20260507063355 57 226 0.0 0.0 0.00 0.00 0.06 94 1009.9
20260507061854 58 107 0.0 0.0 0.00 0.00 0.06 95 1010.2
20260507060340 58 83 0.0 0.0 0.00 0.00 0.06 95 1009.4
20260507054843 58 64 0.0 0.0 0.00 0.00 0.06 95 1008.0
20260507053345 59 64 0.0 0.0 0.00 0.00 0.06 93 1008.0
20260507051849 60 64 0.0 0.0 0.00 0.00 0.05 93 1009.3
20260507050416 61 64 0.0 0.0 0.00 0.00 0.04 93 1009.9
20260507044912 62 62 0.0 0.0 0.00 0.00 0.03 93 1009.6
20260507043355 63 141 0.0 0.0 0.00 0.00 0.03 94 1009.0
20260507041858 64 141 0.0 0.0 0.00 0.00 0.02 93 1009.2
20260507040341 64 141 0.0 0.0 0.00 0.00 0.01 92 1009.1
20260507034841 64 141 0.0 0.0 0.00 0.00 0.09 91 1009.1
20260507033348 64 141 0.0 0.0 0.00 0.00 0.09 90 1008.5
20260507031844 64 141 0.0 0.0 0.00 0.00 0.09 89 1008.4
20260507030408 64 141 0.0 0.0 0.00 0.00 0.09 89 1009.1
20260507024908 64 141 0.0 0.0 0.00 0.00 0.09 88 1008.7
20260507023414 65 141 0.0 0.0 0.00 0.00 0.09 87 1008.5
20260507021847 65 141 0.0 0.0 0.00 0.00 0.09 85 1007.9
20260507020353 65 141 0.0 0.0 0.00 0.00 0.09 85 1008.2
20260507014855 66 141 0.0 0.0 0.00 0.00 0.09 83 1008.3
20260507013340 66 141 0.0 0.0 0.00 0.00 0.09 81 1008.4
20260507011839 66 141 0.0 0.0 0.00 0.00 0.09 81 1008.3
20260507010402 67 141 0.0 0.0 0.00 0.00 0.09 80 1008.2
20260507004842 67 141 0.0 0.0 0.00 0.00 0.09 79 1008.1
20260507003345 67 250 0.0 0.0 0.00 0.00 0.09 78 1008.0
20260507001845 68 257 0.0 0.0 0.00 0.00 0.09 77 1007.9
20260507000413 68 169 0.0 0.0 0.00 0.00 0.09 76 1007.9
20260506234909 69 237 0.0 0.0 0.00 0.00 0.09 75 1008.0
20260506233352 69 97 0.0 0.0 0.00 0.00 0.09 75 1007.5
20260506231912 70 140 0.0 0.0 0.00 0.00 0.09 74 1007.4
20260506230357 70 37 0.0 0.0 0.00 0.00 0.09 73 1007.7
20260506224839 70 268 0.0 0.0 0.00 0.00 0.09 72 1007.6
20260506223406 71 219 0.0 0.0 0.00 0.00 0.09 71 1007.6
20260506221844 71 76 0.0 0.0 0.00 0.00 0.09 70 1007.8
20260506220346 72 92 0.0 0.0 0.00 0.00 0.09 68 1007.5
20260506214843 72 248 0.0 0.0 0.00 0.00 0.09 68 1007.3
20260506213349 72 85 0.0 0.0 0.00 0.00 0.09 68 1007.5
20260506211907 72 251 0.0 0.0 0.00 0.00 0.09 68 1007.5
20260506210349 71 172 0.0 0.0 0.00 0.00 0.09 68 1007.5
20260506204847 71 356 0.0 0.0 0.00 0.00 0.09 67 1007.5
20260506203355 70 217 0.0 0.0 0.00 0.00 0.09 67 1007.6
20260506201851 70 119 0.0 0.0 0.00 0.00 0.09 69 1007.7
20260506200355 69 298 0.0 0.0 0.00 0.00 0.09 72 1007.7
20260506194856 68 277 0.0 0.0 0.00 0.00 0.09 75 1007.6
20260506193343 67 97 0.0 0.0 0.00 0.00 0.09 77 1007.8
20260506191857 67 251 0.0 0.0 0.00 0.00 0.09 77 1008.4
20260506190344 66 92 0.0 0.0 0.00 0.00 0.09 78 1008.4
20260506184901 66 226 0.0 0.0 0.00 0.00 0.09 79 1008.6
20260506183344 66 227 0.0 0.0 0.00 0.00 0.09 79 1008.7
20260506181841 66 69 0.0 0.0 0.00 0.00 0.09 78 1008.9
20260506180347 66 203 0.0 0.0 0.00 0.00 0.09 80 1008.8
20260506174842 65 155 0.0 0.0 0.00 0.00 0.09 80 1008.8
20260506173344 65 72 0.0 0.0 0.00 0.00 0.09 82 1009.0
20260506171904 64 171 0.0 0.0 0.00 0.00 0.09 84 1009.1
20260506170343 64 229 0.0 0.0 0.00 0.00 0.09 85 1009.1
20260506164840 63 188 0.0 0.0 0.00 0.00 0.09 86 1009.2
20260506163344 63 27 0.0 0.0 0.00 0.00 0.09 88 1009.5
20260506161846 62 55 0.0 0.0 0.00 0.00 0.09 89 1009.8
20260506160349 62 223 0.0 0.0 0.00 0.00 0.09 90 1009.5